{"data":{"norad_id":67597,"intl_designator":"2026-018J","name":"STARLINK-36384","alt_names":[],"object_type":"PAYLOAD","status":"ACTIVE","operator":null,"country":"US","launch_date":"2026-01-29","launch_site_code":"AFWTR","launch_vehicle":null,"mission":null,"orbit_class":"UNKNOWN","rcs_meters":null,"size_class":null,"mass_kg":null,"dimensions":null,"purposes":["comms"],"wikipedia_slug":null,"has_3d_model":false,"image_url":null,"decayed_at":null,"tle_current":{"epoch":"2026-09-19T03:07:06.231072Z","epoch_age_seconds":188124,"freshness":"STALE","line1":"1 67597U 26018J   26262.12993323  .00014330  00000+0  44527-3 0  9996","line2":"2 67597  97.2847 325.6571 0001445 102.1837 257.9567 15.33450039 36988","mean_motion":15.33450039,"eccentricity":0.0001445,"inclination_deg":97.2847,"raan_deg":325.6571,"arg_perigee_deg":102.1837,"mean_anomaly_deg":257.9567,"bstar":0.00044527,"rev_number":3698,"period_min":93.905896075953,"perigee_km":464.53927238163,"apogee_km":466.51709161922,"semimajor_km":6843.6651820004,"source":"CELESTRAK","updated_at":"2026-09-20T09:00:43.603226Z"}}}